sat.trackr.live / text

‹ back to catalog

SENTINEL-3A

NORAD 41335 · 2016-011A

PAYLOAD ACTIVE UNKNOWN

§ Identity

Operator
Country
ESA
Launch date
2016-02-16
Launch site
PLMSC
Launch vehicle
Mass (kg)
RCS (m²)
3.98

Purposes: earth_obs

External: N2YO · Heavens-Above · Gunter

§ Orbital elements

Epoch: 2026-09-20T04:08:15.005760Z

Period
100.93 min
Inclination
98.6276°
Eccentricity
0.0001160
Mean motion
14.26735676 rev/d
Perigee alt
801.8 km
Apogee alt
803.5 km
Semi-major
7,180.8 km
B*
3.3109e-5
RAAN
329.1806°
Arg perigee
106.6100°
Mean anomaly
253.5208°
Rev number
55,160

§ Raw data

SENTINEL-3A1 41335U 16011A   26263.17239590  .00000036  00000+0  33109-4 0  99982 41335  98.6276 329.1806 0001160 106.6100 253.5208 14.26735676551606

JSON: /api/v1/satellites/41335 · /tle

For live sub-satellite position, see the globe view (requires WebGL).

§ Visibility from observer

Set your observer location to see the next 7 days of passes ≥ 10°. The values pass through the URL so the page stays shareable.

No JS? Fill the form by hand. The geolocation button needs JavaScript.